Date String (YYYY-MM-DD hh:mm:ss) UTC,Instrument flags,absolute air pressure of the measurement (hPa),sample flow rate (lpm),inlet stack bypass flow (lpm),air temperature of the measurement (°C),ambient temperature measured by the external sensor (°C),aerosol sample conditioner tube jacket temperature (°C),OPC LED temperature (°C),internal box temperature (°C),relative humidity of the measurement (%),span deviation,mass concentration of particles derived from Lorenz-Mie calculation of OPC scattering (μg/m³),mass concentration of particles derived from Lorenz-Mie calculation of OPC scattering (μg/m³),mass concentration of particles derived from Lorenz-Mie calculation of OPC scattering (μg/m³)
DateTimeUTC,F1_M11,P_M11,Q1_M11,Q2_M11,T1_M11,T2_M11,T3_M11,T4_M11,T5_M11,U1_M11,ZSPAN_M11,X0_M11,X2_M11,X1_M11
2024-05-21 19:00:00,SystemResetWarning,0823.8,5.01,000.00,028.5,027.7,000.0,036.9,030.2,017.7,0000.0,0008.17,0003.33,0002.76
2024-05-21 19:01:00,SystemResetWarning,0823.8,4.99,000.00,028.4,027.6,000.0,036.9,030.1,018.0,0000.0,0008.22,0003.32,0002.75
2024-05-21 19:02:00,SystemResetWarning,0823.8,4.99,000.00,028.4,027.6,000.0,036.9,030.1,018.0,0000.0,0008.11,0003.28,0002.73
2024-05-21 19:03:00,SystemResetWarning,0823.8,4.99,000.00,028.4,027.6,000.0,036.9,030.1,017.8,0000.0,0007.95,0003.26,0002.71
2024-05-21 19:04:00,SystemResetWarning,0823.8,5.01,000.00,028.4,027.6,000.0,036.9,030.1,017.6,0000.0,0007.88,0003.26,0002.72
2024-05-21 19:05:00,SystemResetWarning,0823.8,5.01,000.00,028.4,027.5,000.0,036.9,030.0,018.0,0000.0,0007.40,0003.26,0002.73
2024-05-21 19:06:00,SystemResetWarning,0823.8,5.00,000.00,028.4,027.5,000.0,036.9,030.0,018.3,0000.0,0006.64,0003.29,0002.74
2024-05-21 19:07:00,SystemResetWarning,0823.8,5.00,000.00,028.4,027.5,000.0,036.9,030.0,018.5,0000.0,0006.71,0003.30,0002.73
2024-05-21 19:08:00,SystemResetWarning,0823.8,5.00,000.00,028.4,027.5,000.0,036.9,030.1,018.3,0000.0,0007.36,0003.32,0002.75
2024-05-21 19:09:00,SystemResetWarning,0823.8,4.99,000.00,028.4,027.5,000.0,036.9,030.1,018.9,0000.0,0007.96,0003.38,0002.82
2024-05-21 19:10:00,SystemResetWarning,0823.9,5.00,000.00,028.4,027.6,000.0,036.8,030.1,018.5,0000.0,0007.95,0003.46,0002.92
2024-05-21 19:11:00,SystemResetWarning,0823.9,4.99,000.00,028.4,027.6,000.0,036.8,030.1,019.3,0000.0,0008.48,0003.52,0003.01
2024-05-21 19:12:00,SystemResetWarning,0823.9,5.00,000.00,028.4,027.6,000.0,036.8,030.1,019.0,0000.0,0008.69,0003.57,0003.07
2024-05-21 19:13:00,SystemResetWarning,0824.0,4.99,000.00,028.4,027.6,000.0,036.8,030.1,019.0,0000.0,0008.71,0003.58,0003.08
2024-05-21 19:14:00,SystemResetWarning,0823.9,5.00,000.00,028.4,027.6,000.0,036.8,030.1,019.4,0000.0,0008.67,0003.58,0003.09
2024-05-21 19:15:00,SystemResetWarning,0823.9,5.00,000.00,028.4,027.6,000.0,036.8,030.1,019.4,0000.0,0008.63,0003.54,0003.07
2024-05-21 19:16:00,SystemResetWarning,0823.9,5.02,000.00,028.4,027.6,000.0,036.8,030.1,019.4,0000.0,0008.65,0003.53,0003.04
2024-05-21 19:17:00,SystemResetWarning,0823.8,4.99,000.00,028.4,027.6,000.0,036.8,030.1,019.9,0000.0,0008.63,0003.52,0003.03
2024-05-21 19:18:00,SystemResetWarning,0823.8,4.99,000.00,028.4,027.6,000.0,036.8,030.1,020.5,0000.0,0008.70,0003.53,0003.01
2024-05-21 19:19:00,SystemResetWarning,0823.7,5.00,000.00,028.4,027.6,000.0,036.8,030.1,019.7,0000.0,0008.28,0003.50,0002.97
2024-05-21 19:20:00,SystemResetWarning,0823.7,4.99,000.00,028.4,027.6,000.0,036.8,030.1,019.4,0000.0,0007.56,0003.43,0002.89
2024-05-21 19:21:00,SystemResetWarning,0823.6,5.00,000.00,028.4,027.6,000.0,036.8,030.1,018.5,0000.0,0006.97,0003.35,0002.80
2024-05-21 19:22:00,SystemResetWarning,0823.6,5.00,000.00,028.4,027.6,000.0,036.8,030.1,017.4,0000.0,0006.09,0003.30,0002.70
2024-05-21 19:23:00,SystemResetWarning,0823.6,5.01,000.00,028.4,027.6,000.0,036.8,030.1,017.0,0000.0,0005.47,0003.23,0002.62
2024-05-21 19:24:00,SystemResetWarning,0823.6,5.01,000.00,028.4,027.6,000.0,036.8,030.1,018.1,0000.0,0005.42,0003.21,0002.60
2024-05-21 19:25:00,SystemResetWarning,0823.7,5.00,000.00,028.4,027.6,000.0,036.8,030.1,017.7,0000.0,0005.34,0003.19,0002.58
2024-05-21 19:26:00,SystemResetWarning,0823.6,5.00,000.00,028.4,027.6,000.0,036.8,030.1,017.3,0000.0,0005.44,0003.21,0002.58
2024-05-21 19:27:00,SystemResetWarning,0823.7,4.99,000.00,028.4,027.6,000.0,036.8,030.1,017.0,0000.0,0005.66,0003.20,0002.59
2024-05-21 19:28:00,SystemResetWarning,0823.7,4.99,000.00,028.4,027.6,000.0,036.8,030.1,017.2,0000.0,0005.78,0003.19,0002.59
2024-05-21 19:29:00,SystemResetWarning,0823.8,5.00,000.00,028.3,027.6,000.0,036.8,030.1,017.9,0000.0,0005.51,0003.15,0002.57
2024-05-21 19:30:00,SystemResetWarning,0823.8,5.00,000.00,028.3,027.5,000.0,036.8,030.0,017.9,0000.0,0005.56,0003.17,0002.56
2024-05-21 19:31:00,SystemResetWarning,0823.8,5.02,000.00,028.3,027.5,000.0,036.8,030.0,017.8,0000.0,0005.72,0003.21,0002.57
2024-05-21 19:32:00,SystemResetWarning,0823.8,5.00,000.00,028.3,027.5,000.0,036.8,030.0,018.2,0000.0,0005.73,0003.21,0002.56
2024-05-21 19:33:00,SystemResetWarning,0823.9,5.00,000.00,028.3,027.5,000.0,036.8,030.0,019.0,0000.0,0005.61,0003.18,0002.55
2024-05-21 19:34:00,SystemResetWarning,0824.0,5.00,000.00,028.3,027.4,000.0,036.8,030.0,018.3,0000.0,0005.66,0003.20,0002.54
2024-05-21 19:35:00,SystemResetWarning,0824.0,5.00,000.00,028.3,027.4,000.0,036.8,030.0,018.6,0000.0,0006.16,0003.21,0002.52
2024-05-21 19:36:00,SystemResetWarning,0823.9,5.00,000.00,028.2,027.4,000.0,036.8,029.9,018.9,0000.0,0006.24,0003.20,0002.50
2024-05-21 19:37:00,SystemResetWarning,0823.9,5.00,000.00,028.2,027.4,000.0,036.8,029.9,018.8,0000.0,0006.27,0003.18,0002.49
2024-05-21 19:38:00,SystemResetWarning,0824.0,4.99,000.00,028.2,027.4,000.0,036.8,029.9,018.6,0000.0,0006.05,0003.21,0002.46
2024-05-21 19:39:00,SystemResetWarning,0823.9,5.01,000.00,028.2,027.4,000.0,036.8,029.9,018.7,0000.0,0005.82,0003.20,0002.43
2024-05-21 19:40:00,SystemResetWarning,0823.9,5.01,000.00,028.2,027.4,000.0,036.7,029.9,019.3,0000.0,0006.65,0003.21,0002.44
2024-05-21 19:41:00,SystemResetWarning,0824.0,4.98,000.00,028.2,027.4,000.0,036.7,029.9,018.7,0000.0,0006.99,0003.16,0002.44
2024-05-21 19:42:00,SystemResetWarning,0824.0,5.00,000.00,028.2,027.4,000.0,036.7,029.9,018.6,0000.0,0006.97,0003.15,0002.44
2024-05-21 19:43:00,SystemResetWarning,0824.0,5.01,000.00,028.2,027.4,000.0,036.7,029.9,018.7,0000.0,0007.16,0003.16,0002.43
2024-05-21 19:44:00,SystemResetWarning,0824.0,5.00,000.00,028.2,027.3,000.0,036.7,029.9,018.2,0000.0,0007.06,0003.16,0002.43
2024-05-21 19:45:00,SystemResetWarning,0824.0,4.99,000.00,028.2,027.3,000.0,036.7,029.9,018.8,0000.0,0007.04,0003.16,0002.44
2024-05-21 19:46:00,SystemResetWarning,0824.0,4.99,000.00,028.2,027.4,000.0,036.7,029.9,018.8,0000.0,0006.68,0003.15,0002.45
2024-05-21 19:47:00,SystemResetWarning,0824.1,5.00,000.00,028.2,027.4,000.0,036.7,029.9,019.5,0000.0,0006.62,0003.15,0002.44
2024-05-21 19:48:00,SystemResetWarning,0824.2,5.01,000.00,028.2,027.4,000.0,036.7,030.0,019.6,0000.0,0006.94,0003.16,0002.44
2024-05-21 19:49:00,SystemResetWarning,0824.2,4.99,000.00,028.2,027.4,000.0,036.7,030.0,018.4,0000.0,0007.55,0003.13,0002.45
2024-05-21 19:50:00,SystemResetWarning,0824.1,5.00,000.00,028.2,027.4,000.0,036.7,030.0,018.8,0000.0,0007.65,0003.13,0002.46
2024-05-21 19:51:00,SystemResetWarning,0824.2,5.01,000.00,028.2,027.4,000.0,036.7,030.0,018.8,0000.0,0007.17,0003.12,0002.44
2024-05-21 19:52:00,SystemResetWarning,0824.2,5.01,000.00,028.2,027.4,000.0,036.7,030.0,019.3,0000.0,0006.65,0003.13,0002.42
2024-05-21 19:53:00,SystemResetWarning,0824.2,5.00,000.00,028.2,027.4,000.0,036.7,030.0,019.9,0000.0,0006.74,0003.15,0002.40
2024-05-21 19:54:00,SystemResetWarning,0824.2,4.99,000.00,028.2,027.5,000.0,036.7,030.0,019.2,0000.0,0006.45,0003.11,0002.40
2024-05-21 19:55:00,SystemResetWarning,0824.2,4.99,000.00,028.2,027.5,000.0,036.7,030.0,019.0,0000.0,0006.59,0003.10,0002.38
2024-05-21 19:56:00,SystemResetWarning,0824.2,5.01,000.00,028.2,027.5,000.0,036.7,030.0,019.0,0000.0,0006.62,0003.09,0002.36
2024-05-21 19:57:00,SystemResetWarning,0824.2,5.01,000.00,028.2,027.5,000.0,036.7,030.0,019.2,0000.0,0006.65,0003.11,0002.36
2024-05-21 19:58:00,SystemResetWarning,0824.1,5.00,000.00,028.2,027.5,000.0,036.7,030.0,019.0,0000.0,0006.63,0003.10,0002.36
2024-05-21 19:59:00,SystemResetWarning,0824.2,4.99,000.00,028.2,027.5,000.0,036.7,030.0,018.8,0000.0,0006.29,0003.08,0002.35
